Retour au catalogue

TIBA-1

ActifCommunicationsGEO
NORAD 44800·PAYLOAD·🇪🇬 Egypt

Lancé Nov 26, 2019 depuis Guiana Space Centre

Loading…

TLE

FraisSource: Space-Track

Époque: Sep 14, 2026, 13:58 UTC

1 44800U 19080A   26257.58212104  .00000148  00000-0  00000-0 0  9992
2 44800   0.0558 340.8599 0002384 196.8072  60.9388  1.00274469 24940

Suivez TIBA-1 en temps réel avec AllMySat

Download on the App Store